Appleton, MN

10:44 PM CDT on August 29, 2016 (GMT -0500)
Appleton Municipal

Weather History for KAQP - April, 2013

Change the Weather History Date:

Thursday, April 4, 2013

  Actual Average Record
Temperature  
Mean Temperature 35 °F -  
Max Temperature 44 °F 46 °F 87 °F (1999)
Min Temperature 26 °F 26 °F 12 °F (2002)
Degree Days  
Heating Degree Days 30    
Moisture  
Dew Point 28 °F    
Average Humidity 75    
Maximum Humidity 87    
Minimum Humidity 65    
Precipitation  
Precipitation 0.00 in - - ()
Sea Level Pressure  
Sea Level Pressure 30.14 in    
Wind  
Wind Speed 12 mph (NNW)    
Max Wind Speed 23 mph    
Max Gust Speed 28 mph    
Visibility 10 miles    
Events      
Averages and records for this station are not official NWS values.
T = Trace of Precipitation, MM = Missing Value Source: NWS Daily Summary

Daily Weather History Graph

Daily Weather History Graph

Search for Another Location

Airport or City:

Trip Planner

Search our weather history database for the weather conditions in past years. The results will help you decide how hot, cold, wet, or windy it might be!

Date:

Astronomy

Apr. 04, 2013 Rise Set
Actual Time 6:58 AM CDT 7:56 PM CDT
Civil Twilight 6:28 AM CDT 8:26 PM CDT
Nautical Twilight 5:52 AM CDT 9:02 PM CDT
Astronomical Twilight 5:15 AM CDT 9:39 PM CDT
Moon 3:41 AM CDT (4/4) 2:00 PM CDT (4/4)
Length of Visible Light 13h 57m
Length of Day
12h 57m
Waning Crescent, 33% of the Moon is Illuminated
Apr 4
Waning Crescent
Apr 10
New
Apr 18
First Quarter
Apr 25
Full
May 2
Last Quarter

Hourly Weather History & Observations

Time (CDT) Temp. Windchill Dew Point Humidity Pressure Visibility Wind Dir Wind Speed Gust Speed Precip Events Conditions
12:13 AM 44.6 °F 38.1 °F 33.8 °F 66% 30.01 in 10.0 mi West 13.8 mph - N/A   Scattered Clouds
12:33 AM 42.8 °F 37.0 °F 33.8 °F 70% 30.02 in 10.0 mi WNW 10.4 mph - N/A   Clear
12:53 AM 39.2 °F 32.5 °F 33.8 °F 81% 30.02 in 10.0 mi WNW 10.4 mph - N/A   Clear
1:13 AM 39.2 °F 35.0 °F 33.8 °F 81% 30.02 in 10.0 mi WNW 5.8 mph - N/A   Clear
1:33 AM 37.4 °F 31.4 °F 33.8 °F 87% 30.04 in 7.0 mi West 8.1 mph - N/A   Clear
1:54 AM 37.4 °F 32.1 °F 33.8 °F 87% 30.04 in 7.0 mi WNW 6.9 mph - N/A   Clear
2:13 AM 37.4 °F 30.8 °F 33.8 °F 87% 30.04 in 7.0 mi WNW 9.2 mph - N/A   Clear
2:33 AM 35.6 °F 28.6 °F 32.0 °F 87% 30.04 in 10.0 mi WNW 9.2 mph - N/A   Clear
2:53 AM 35.6 °F 29.2 °F 30.2 °F 81% 30.04 in 10.0 mi NW 8.1 mph - N/A   Clear
3:13 AM 35.6 °F 28.6 °F 30.2 °F 81% 30.04 in 10.0 mi NW 9.2 mph - N/A   Clear
3:33 AM 35.6 °F 28.6 °F 30.2 °F 81% 30.05 in 10.0 mi NW 9.2 mph - N/A   Clear
3:53 AM 35.6 °F 28.6 °F 28.4 °F 75% 30.05 in 10.0 mi NW 9.2 mph - N/A   Clear
4:14 AM 35.6 °F 28.6 °F 28.4 °F 75% 30.05 in 10.0 mi NNW 9.2 mph - N/A   Clear
4:34 AM 35.6 °F 28.6 °F 28.4 °F 75% 30.06 in 10.0 mi NW 9.2 mph - N/A   Clear
4:53 AM 35.6 °F 28.6 °F 28.4 °F 75% 30.06 in 10.0 mi WNW 9.2 mph - N/A   Clear
5:13 AM 35.6 °F 28.6 °F 28.4 °F 75% 30.06 in 10.0 mi NW 9.2 mph - N/A   Clear
5:33 AM 33.8 °F 26.4 °F 28.4 °F 81% 30.07 in 10.0 mi NW 9.2 mph - N/A   Clear
5:53 AM 33.8 °F 27.0 °F 28.4 °F 81% 30.08 in 10.0 mi WNW 8.1 mph - N/A   Clear
6:13 AM 33.8 °F 26.4 °F 28.4 °F 81% 30.08 in 10.0 mi NW 9.2 mph - N/A   Clear
6:33 AM 33.8 °F 25.8 °F 30.2 °F 87% 30.08 in 10.0 mi NW 10.4 mph - N/A   Clear
6:53 AM 33.8 °F 26.4 °F 30.2 °F 87% 30.09 in 10.0 mi NW 9.2 mph - N/A   Clear
7:13 AM 33.8 °F 26.4 °F 28.4 °F 81% 30.10 in 10.0 mi NW 9.2 mph - N/A   Clear
7:33 AM 33.8 °F 25.8 °F 28.4 °F 81% 30.10 in 10.0 mi NNW 10.4 mph - N/A   Clear
7:53 AM 33.8 °F 25.8 °F 28.4 °F 81% 30.11 in 10.0 mi NNW 10.4 mph - N/A   Clear
8:13 AM 33.8 °F 24.3 °F 28.4 °F 81% 30.12 in 10.0 mi NNW 13.8 mph 18.4 mph N/A   Clear
8:33 AM 35.6 °F 26.6 °F 28.4 °F 75% 30.13 in 10.0 mi NNW 13.8 mph 17.3 mph N/A   Clear
8:53 AM 35.6 °F 25.2 °F 28.4 °F 75% 30.13 in 10.0 mi NNW 18.4 mph - N/A   Clear
9:13 AM 35.6 °F 24.8 °F 28.4 °F 75% 30.14 in 10.0 mi North 19.6 mph - N/A   Clear
9:33 AM 35.6 °F 25.2 °F 28.4 °F 75% 30.14 in 10.0 mi NNW 18.4 mph 21.9 mph N/A   Clear
9:53 AM 35.6 °F 24.8 °F 28.4 °F 75% 30.14 in 10.0 mi NNW 19.6 mph 23.0 mph N/A   Clear
10:13 AM 35.6 °F 25.2 °F 28.4 °F 75% 30.15 in 10.0 mi NNW 18.4 mph - N/A   Clear
10:33 AM 35.6 °F 26.6 °F 28.4 °F 75% 30.16 in 10.0 mi NNW 13.8 mph - N/A   Clear
10:53 AM 35.6 °F 25.9 °F 28.4 °F 75% 30.16 in 10.0 mi NNW 16.1 mph - N/A   Clear
11:33 AM 37.4 °F 28.2 °F 28.4 °F 70% 30.18 in 10.0 mi North 16.1 mph 20.7 mph N/A   Clear
11:53 AM 37.4 °F 27.8 °F 28.4 °F 70% 30.18 in 10.0 mi North 17.3 mph - N/A   Clear
12:13 PM 39.2 °F 30.8 °F 28.4 °F 65% 30.18 in 10.0 mi NNW 15.0 mph 18.4 mph N/A   Clear
12:33 PM 39.2 °F 31.2 °F 28.4 °F 65% 30.19 in 10.0 mi NNW 13.8 mph 23.0 mph N/A   Clear
12:53 PM 39.2 °F 30.5 °F 28.4 °F 65% 30.19 in 10.0 mi NNW 16.1 mph - N/A   Clear
1:13 PM 39.2 °F 30.8 °F 28.4 °F 65% 30.19 in 10.0 mi NNW 15.0 mph - N/A   Scattered Clouds
1:33 PM 39.2 °F 30.5 °F 28.4 °F 65% 30.19 in 10.0 mi North 16.1 mph - N/A   Scattered Clouds
1:53 PM 39.2 °F 30.2 °F 28.4 °F 65% 30.18 in 10.0 mi North 17.3 mph - N/A   Scattered Clouds
2:13 PM 39.2 °F 30.8 °F 28.4 °F 65% 30.18 in 10.0 mi NNW 15.0 mph 23.0 mph N/A   Clear
2:34 PM 39.2 °F 30.5 °F 28.4 °F 65% 30.19 in 10.0 mi NNW 16.1 mph - N/A   Clear
2:54 PM 39.2 °F 30.2 °F 28.4 °F 65% 30.19 in 10.0 mi NNW 17.3 mph - N/A   Clear
3:13 PM 37.4 °F 27.5 °F 28.4 °F 70% 30.19 in 10.0 mi NNW 18.4 mph 21.9 mph N/A   Clear
3:33 PM 37.4 °F 27.8 °F 28.4 °F 70% 30.19 in 10.0 mi NNW 17.3 mph - N/A   Clear
3:53 PM 37.4 °F 26.6 °F 28.4 °F 70% 30.19 in 10.0 mi North 21.9 mph - N/A   Clear
4:14 PM 37.4 °F 26.9 °F 26.6 °F 65% 30.18 in 10.0 mi NNW 20.7 mph - N/A   Clear
4:33 PM 37.4 °F 26.6 °F 26.6 °F 65% 30.18 in 10.0 mi North 21.9 mph 26.5 mph N/A   Clear
4:53 PM 37.4 °F 27.2 °F 26.6 °F 65% 30.19 in 10.0 mi NNW 19.6 mph 25.3 mph N/A   Clear
5:13 PM 37.4 °F 26.9 °F 26.6 °F 65% 30.19 in 10.0 mi NNW 20.7 mph 27.6 mph N/A   Clear
5:33 PM 37.4 °F 26.9 °F 26.6 °F 65% 30.20 in 10.0 mi NNW 20.7 mph 26.5 mph N/A   Clear
5:53 PM 35.6 °F 24.5 °F 26.6 °F 70% 30.20 in 10.0 mi North 20.7 mph 27.6 mph N/A   Clear
6:13 PM 35.6 °F 24.5 °F 24.8 °F 65% 30.20 in 10.0 mi North 20.7 mph 26.5 mph N/A   Clear
6:34 PM 35.6 °F 25.2 °F 24.8 °F 65% 30.20 in 10.0 mi North 18.4 mph 24.2 mph N/A   Clear
6:53 PM 33.8 °F 21.6 °F 24.8 °F 70% 30.20 in 10.0 mi North 23.0 mph - N/A   Clear
7:13 PM 33.8 °F 23.9 °F 24.8 °F 70% 30.20 in 10.0 mi NNW 15.0 mph 19.6 mph N/A   Clear
7:33 PM 33.8 °F 23.9 °F 24.8 °F 70% 30.20 in 10.0 mi NNW 15.0 mph 19.6 mph N/A   Clear
7:53 PM 32.0 °F 23.0 °F 24.8 °F 75% 30.20 in 10.0 mi North 11.5 mph - N/A   Clear
8:13 PM 30.2 °F 20.2 °F 23.0 °F 75% 30.20 in 10.0 mi North 12.7 mph - N/A   Clear
8:33 PM 30.2 °F 20.2 °F 23.0 °F 75% 30.21 in 10.0 mi NNW 12.7 mph - N/A   Clear
8:53 PM 30.2 °F 20.8 °F 24.8 °F 80% 30.21 in 10.0 mi NNW 11.5 mph - N/A   Clear
9:13 PM 30.2 °F 21.3 °F 23.0 °F 75% 30.21 in 10.0 mi NNW 10.4 mph - N/A   Clear
9:34 PM 28.4 °F 19.1 °F 23.0 °F 80% 30.21 in 10.0 mi North 10.4 mph - N/A   Clear
9:53 PM 28.4 °F 18.5 °F 24.8 °F 86% 30.22 in 10.0 mi NNW 11.5 mph - N/A   Clear
10:13 PM 28.4 °F 17.5 °F 23.0 °F 80% 30.23 in 10.0 mi NNW 13.8 mph - N/A   Clear
10:33 PM 28.4 °F 18.5 °F 23.0 °F 80% 30.23 in 10.0 mi NNW 11.5 mph - N/A   Clear
10:53 PM 28.4 °F 19.1 °F 23.0 °F 80% 30.23 in 10.0 mi North 10.4 mph - N/A   Clear
11:13 PM 28.4 °F 19.7 °F 23.0 °F 80% 30.23 in 10.0 mi NNW 9.2 mph - N/A   Clear
11:34 PM 26.6 °F 18.2 °F 23.0 °F 86% 30.23 in 10.0 mi NNW 8.1 mph - N/A   Clear
11:53 PM 26.6 °F 18.2 °F 21.2 °F 80% 30.24 in 10.0 mi NNW 8.1 mph - N/A   Clear